Location: Cruquius
(52.3348°N, 4.6319°E)
Time: 04:26:15
(UTC+00:00)

Cosmos 2278 Rocket - Pass Details

Date: 12 May 2021
Orbit: 841 x 845 km, 71.0° (Epoch: 14 June)

Event Time Altitude Azimuth Distance (km) Brightness Sun altitude
Rises 20:03:43 0° 176° (S) 3,386 4.9 -5.5°
Reaches altitude 10° 20:06:23 10° 166° (SSE) 2,455 4.1 -5.8°
Maximum altitude 20:11:15 31° 106° (ESE) 1,442 3.0 -6.4°
Drops below altitude 10° 20:16:09 10° 46° (NE) 2,470 4.6 -6.9°
Sets 20:18:50 0° 36° (NE) 3,410 5.4 -7.2°
